This is the latest recevied weather packets stored in our database for station/object K1WJY. If no packets are shown the sender has not sent any weather packets the latest 1 day(s).
| Time | Temp. | Humidity | Pressure | Rain* | Wind** | Luminosity | Snow |
|---|---|---|---|---|---|---|---|
| 1777988524 | 15.56° C | 74% | 1011.8 hPa | 0 mm | 2.24 m/s, 240° | 715 W/m² | - |
| 1777988220 | 15° C | 75% | 1011.3 hPa | 0 mm | 1.34 m/s, 220° | 692 W/m² | - |
| 1777987916 | 15° C | 75% | 1011.7 hPa | 0 mm | 1.34 m/s, 280° | 691 W/m² | - |
| 1777987612 | 14.44° C | 78% | 1011.6 hPa | 0 mm | 1.34 m/s, 150° | 673 W/m² | - |
| 1777987310 | 13.89° C | 78% | 1011.5 hPa | 0 mm | 0.89 m/s, 291° | 543 W/m² | - |
| 1777987007 | 13.89° C | 78% | 1011.5 hPa | 0 mm | 2.24 m/s, 229° | 460 W/m² | - |
| 1777986705 | 13.89° C | 79% | 1011.8 hPa | 0 mm | 2.24 m/s, 235° | 615 W/m² | - |
| 1777986403 | 13.89° C | 79% | 1011.5 hPa | 0 mm | 2.24 m/s, 240° | 501 W/m² | - |
| 1777986101 | 13.89° C | 80% | 1011.7 hPa | 0 mm | 0.89 m/s, 151° | 571 W/m² | - |
| 1777985797 | 13.33° C | 80% | 1011.8 hPa | 0 mm | 1.34 m/s, 308° | 551 W/m² | - |
| 1777985494 | 13.89° C | 79% | 1011.8 hPa | 0 mm | 2.68 m/s, 219° | 557 W/m² | - |
| 1777985191 | 13.89° C | 79% | 1011.7 hPa | 0 mm | 1.34 m/s, 258° | 494 W/m² | - |
| 1777984887 | 13.33° C | 81% | 1011.7 hPa | 0 mm | 0 m/s | 462 W/m² | - |
| 1777984587 | 12.78° C | 80% | 1011.7 hPa | 0 mm | 1.34 m/s, 243° | 473 W/m² | - |
| 1777984280 | 12.78° C | 81% | 1011.9 hPa | 0 mm | 1.34 m/s, 268° | 416 W/m² | - |
| 1777983977 | 12.78° C | 81% | 1011.7 hPa | 0 mm | 2.24 m/s, 204° | 401 W/m² | - |
| 1777983674 | 12.78° C | 82% | 1011.7 hPa | 0 mm | 0.89 m/s, 179° | 383 W/m² | - |
| 1777983370 | 12.78° C | 81% | 1011.8 hPa | 0 mm | 1.34 m/s, 158° | 356 W/m² | - |
| 1777983067 | 12.78° C | 82% | 1011.8 hPa | 0 mm | 1.34 m/s, 119° | 317 W/m² | - |
| 1777982764 | 12.78° C | 81% | 1011.7 hPa | 0 mm | 1.79 m/s, 199° | 313 W/m² | - |
| 1777982459 | 12.22° C | 83% | 1011.7 hPa | 0 mm | 0.89 m/s, 183° | 304 W/m² | - |
| 1777982154 | 12.22° C | 83% | 1011.7 hPa | 0 mm | 0.45 m/s, 280° | 279 W/m² | - |
| 1777981852 | 11.67° C | 83% | 1011.7 hPa | 0 mm | 1.79 m/s, 171° | 264 W/m² | - |
| 1777981549 | 11.67° C | 83% | 1011.8 hPa | 0 mm | 3.58 m/s, 199° | 242 W/m² | - |
| 1777981245 | 11.67° C | 85% | 1011.7 hPa | 0 mm | 1.34 m/s, 238° | 236 W/m² | - |
* Rain latest hour (hover to see other rain measurements)
** Current wind speed in m/s (hover to see current wind gust speed)